ONEWEB-0565 (55146 NORAD) Tracking and Keplerian Element Data

This shows tracking and keplerian element data for the satellite.

Feedback or suggestion? Click here.




ElementValue
Catalog55146
NameONEWEB-0565
Epoch Orbit130
Epoch Day13.91667824
Epoch Year2023
RAAN284.1414
Inclination86.5107
Eccentricity0.0013028
Argument of Perigee213.8703
Mean Anonmoly64.2165
Mean Motion14.91905558
Decay Rate-0.00047283
L11 55146U 23004G 23013.91667824 -.00047283 00000+0 -47106-2 0 9997
L22 55146 86.5107 284.1414 0013028 213.8703 64.2165 14.91905558 1307



Live tracking and technical data element details for ONEWEB-0565 (NORAD 55146). ONEWEB-0565 can be tracked NOW for your location showing map with azimuth and elevation plus other details from your city location.







IsCatalogInMostPopularTable: catalog: 55146, numindb: 3
Update: records affected: 1



GetName: 55146 ONEWEB-0565

Hit Count: updated at: Tue, 07 Feb 2023 15:27:57 GMT